TimeCST,TemperatureF,Dew PointF,Humidity,Sea Level PressureIn,VisibilityMPH,Wind Direction,Wind SpeedMPH,Gust SpeedMPH,PrecipitationIn,Events,Conditions,WindDirDegrees,DateUTC
12:15 AM,25.7,10.0,52,30.55,10.0,South,5.8,-,N/A,,Clear,190,2013-11-13 06:15:00
12:35 AM,24.8,10.4,54,30.56,10.0,Calm,Calm,-,N/A,,Clear,0,2013-11-13 06:35:00
12:55 AM,25.5,10.0,52,30.54,10.0,South,4.6,-,N/A,,Clear,170,2013-11-13 06:55:00
1:15 AM,24.8,10.2,54,30.53,10.0,Calm,Calm,-,N/A,,Clear,0,2013-11-13 07:15:00
1:35 AM,24.8,10.0,54,30.53,10.0,SSE,3.5,-,N/A,,Clear,160,2013-11-13 07:35:00
1:55 AM,25.3,10.0,52,30.52,10.0,South,4.6,-,N/A,,Clear,180,2013-11-13 07:55:00
2:15 AM,24.8,10.2,54,30.52,10.0,SSE,4.6,-,N/A,,Clear,160,2013-11-13 08:15:00
2:35 AM,24.1,10.8,57,30.52,10.0,SSE,4.6,-,N/A,,Clear,150,2013-11-13 08:35:00
2:55 AM,24.3,10.9,57,30.50,10.0,SSE,3.5,-,N/A,,Clear,160,2013-11-13 08:55:00
3:15 AM,22.8,11.3,61,30.50,10.0,SE,4.6,-,N/A,,Clear,130,2013-11-13 09:15:00
3:35 AM,22.8,11.3,61,30.49,10.0,SE,4.6,-,N/A,,Clear,140,2013-11-13 09:35:00
3:55 AM,21.9,12.0,66,30.48,10.0,SE,5.8,-,N/A,,Clear,140,2013-11-13 09:55:00
4:15 AM,21.6,12.2,67,30.47,10.0,SE,5.8,-,N/A,,Clear,140,2013-11-13 10:15:00
4:35 AM,22.8,12.4,64,30.47,10.0,ESE,4.6,-,N/A,,Clear,110,2013-11-13 10:35:00
4:55 AM,21.7,12.4,67,30.46,10.0,SE,5.8,-,N/A,,Clear,130,2013-11-13 10:55:00
5:15 AM,21.7,12.6,68,30.45,10.0,SE,5.8,-,N/A,,Clear,140,2013-11-13 11:15:00
5:35 AM,21.7,12.4,67,30.44,10.0,SE,5.8,-,N/A,,Clear,140,2013-11-13 11:35:00
5:55 AM,22.5,12.9,67,30.43,10.0,SSE,5.8,-,N/A,,Clear,160,2013-11-13 11:55:00
6:15 AM,24.4,13.1,62,30.42,10.0,South,6.9,-,N/A,,Clear,170,2013-11-13 12:15:00
6:35 AM,24.6,13.3,62,30.42,10.0,SE,5.8,-,N/A,,Clear,140,2013-11-13 12:35:00
6:55 AM,24.8,13.5,62,30.41,10.0,SSE,5.8,-,N/A,,Clear,150,2013-11-13 12:55:00
7:15 AM,25.9,13.6,60,30.38,10.0,South,8.1,-,N/A,,Clear,180,2013-11-13 13:15:00
7:35 AM,26.6,13.8,59,30.37,10.0,South,9.2,-,N/A,,Clear,180,2013-11-13 13:35:00
7:55 AM,27.3,14.2,58,30.36,10.0,South,6.9,16.1,N/A,,Clear,180,2013-11-13 13:55:00
8:15 AM,29.1,14.7,55,30.36,10.0,South,9.2,-,N/A,,Clear,190,2013-11-13 14:15:00
8:35 AM,30.6,15.3,53,30.35,10.0,South,10.4,16.1,N/A,,Clear,170,2013-11-13 14:35:00
8:55 AM,32.2,15.6,51,30.35,10.0,South,4.6,-,N/A,,Clear,180,2013-11-13 14:55:00
9:15 AM,34.5,16.2,47,30.34,10.0,South,9.2,16.1,N/A,,Clear,190,2013-11-13 15:15:00
9:35 AM,35.8,16.5,46,30.33,10.0,South,6.9,18.4,N/A,,Clear,190,2013-11-13 15:35:00
9:55 AM,37.6,17.6,44,30.33,10.0,South,9.2,16.1,N/A,,Clear,180,2013-11-13 15:55:00
10:15 AM,39.2,18.3,43,30.31,10.0,SSW,11.5,17.3,N/A,,Clear,200,2013-11-13 16:15:00
10:35 AM,41.0,19.6,42,30.30,10.0,South,10.4,-,N/A,,Clear,190,2013-11-13 16:35:00
10:55 AM,42.8,20.5,41,30.30,10.0,SSW,11.5,18.4,N/A,,Clear,200,2013-11-13 16:55:00
11:15 AM,44.8,21.7,40,30.28,10.0,South,9.2,-,N/A,,Clear,180,2013-11-13 17:15:00
11:35 AM,45.1,21.7,40,30.27,10.0,South,6.9,-,N/A,,Clear,190,2013-11-13 17:35:00
11:55 AM,46.8,22.6,39,30.25,10.0,South,13.8,17.3,N/A,,Clear,190,2013-11-13 17:55:00
12:15 PM,48.0,22.8,37,30.24,10.0,South,13.8,19.6,N/A,,Clear,180,2013-11-13 18:15:00
12:35 PM,49.5,23.9,37,30.23,10.0,South,11.5,23.0,N/A,,Clear,180,2013-11-13 18:35:00
12:55 PM,50.5,24.4,36,30.21,10.0,South,12.7,19.6,N/A,,Clear,180,2013-11-13 18:55:00
1:15 PM,50.7,24.6,36,30.20,10.0,South,16.1,20.7,N/A,,Clear,190,2013-11-13 19:15:00
1:35 PM,51.8,25.5,36,30.18,10.0,South,13.8,21.9,N/A,,Clear,170,2013-11-13 19:35:00
1:55 PM,52.3,25.7,36,30.17,10.0,South,13.8,20.7,N/A,,Clear,180,2013-11-13 19:55:00
2:15 PM,52.7,25.7,35,30.16,10.0,South,11.5,23.0,N/A,,Clear,180,2013-11-13 20:15:00
2:35 PM,52.9,26.1,35,30.15,10.0,South,12.7,20.7,N/A,,Clear,180,2013-11-13 20:35:00
2:55 PM,53.4,26.6,36,30.13,10.0,South,12.7,24.2,N/A,,Clear,190,2013-11-13 20:55:00
3:15 PM,53.6,26.6,35,30.13,10.0,South,11.5,19.6,N/A,,Clear,190,2013-11-13 21:15:00
3:35 PM,53.6,26.6,35,30.12,10.0,South,12.7,19.6,N/A,,Clear,180,2013-11-13 21:35:00
3:55 PM,53.2,26.6,36,30.11,10.0,SSE,12.7,18.4,N/A,,Clear,160,2013-11-13 21:55:00
4:15 PM,52.7,26.8,37,30.11,10.0,South,12.7,18.4,N/A,,Clear,180,2013-11-13 22:15:00
4:35 PM,51.8,26.2,37,30.10,10.0,South,10.4,-,N/A,,Clear,170,2013-11-13 22:35:00
4:55 PM,50.7,26.4,39,30.09,10.0,South,11.5,16.1,N/A,,Clear,170,2013-11-13 22:55:00
5:15 PM,49.1,26.1,41,30.09,10.0,SSE,9.2,-,N/A,,Clear,160,2013-11-13 23:15:00
5:35 PM,48.0,25.7,42,30.09,10.0,SSE,8.1,-,N/A,,Clear,160,2013-11-13 23:35:00
5:55 PM,46.0,26.1,46,30.08,10.0,SSE,8.1,-,N/A,,Clear,150,2013-11-13 23:55:00
6:15 PM,45.1,26.2,48,30.08,10.0,SSE,10.4,-,N/A,,Clear,150,2013-11-14 00:15:00
6:35 PM,44.1,25.9,49,30.08,10.0,SE,8.1,-,N/A,,Clear,140,2013-11-14 00:35:00
6:55 PM,43.0,25.7,51,30.07,10.0,SE,9.2,-,N/A,,Clear,140,2013-11-14 00:55:00
7:15 PM,42.8,25.7,51,30.07,10.0,SSE,9.2,-,N/A,,Clear,150,2013-11-14 01:15:00
7:35 PM,42.8,25.7,51,30.07,10.0,SSE,10.4,-,N/A,,Clear,150,2013-11-14 01:35:00
7:55 PM,39.9,25.7,57,30.07,10.0,SE,8.1,-,N/A,,Clear,140,2013-11-14 01:55:00
8:15 PM,40.5,25.5,55,30.06,10.0,SSE,6.9,-,N/A,,Clear,150,2013-11-14 02:15:00
8:35 PM,40.8,25.3,54,30.06,10.0,SSE,6.9,-,N/A,,Clear,160,2013-11-14 02:35:00
8:55 PM,40.1,25.0,55,30.06,10.0,SSE,5.8,-,N/A,,Clear,150,2013-11-14 02:55:00
9:15 PM,40.3,25.0,54,30.06,10.0,SSE,8.1,-,N/A,,Clear,150,2013-11-14 03:15:00
9:35 PM,40.1,25.0,55,30.05,10.0,SSE,8.1,-,N/A,,Clear,160,2013-11-14 03:35:00
9:55 PM,39.9,25.2,56,30.04,10.0,SSE,8.1,-,N/A,,Clear,160,2013-11-14 03:55:00
10:15 PM,39.7,25.3,56,30.03,10.0,SSE,9.2,-,N/A,,Clear,160,2013-11-14 04:15:00
10:35 PM,40.1,25.3,56,30.03,10.0,South,6.9,-,N/A,,Clear,170,2013-11-14 04:35:00
10:55 PM,40.1,25.5,56,30.02,10.0,SSE,6.9,-,N/A,,Clear,160,2013-11-14 04:55:00
11:15 PM,39.6,25.7,58,30.01,10.0,SSE,6.9,-,N/A,,Clear,160,2013-11-14 05:15:00
11:35 PM,39.9,25.7,57,30.01,10.0,South,8.1,-,N/A,,Clear,170,2013-11-14 05:35:00
11:55 PM,39.9,25.7,57,30.00,10.0,SSE,6.9,-,N/A,,Clear,160,2013-11-14 05:55:00